This is the latest recevied weather packets stored in our database for station/object SP2ARK-10. If no packets are shown the sender has not sent any weather packets the latest 10 day(s).
| Time | Temp. | Humidity | Pressure | Rain* | Wind** | Luminosity | Snow |
|---|---|---|---|---|---|---|---|
| 1777805385 | 32.22° C | 45% | 1020.5 hPa | - | - | - | - |
| 1777804485 | 36.67° C | 43% | 1020.5 hPa | - | - | - | - |
| 1777803584 | 36.67° C | 43% | 1020.7 hPa | - | - | - | - |
| 1777802683 | 36.67° C | 42% | 1020.8 hPa | - | - | - | - |
| 1777801782 | 33.33° C | 45% | 1021 hPa | - | - | - | - |
| 1777800881 | 25° C | 51% | 1021.3 hPa | - | - | - | - |
| 1777799981 | 23.89° C | 53% | 1021.5 hPa | - | - | - | - |
| 1777799080 | 21.67° C | 55% | 1021.6 hPa | - | - | - | - |
| 1777798180 | 21.11° C | 55% | 1021.7 hPa | - | - | - | - |
| 1777797279 | 20.56° C | 55% | 1021.9 hPa | - | - | - | - |
| 1777796379 | 20.56° C | 54% | 1022.1 hPa | - | - | - | - |
| 1777795478 | 20° C | 55% | 1022 hPa | - | - | - | - |
| 1777794577 | 19.44° C | 56% | 1022 hPa | - | - | - | - |
| 1777793677 | 18.89° C | 56% | 1022 hPa | - | - | - | - |
| 1777792777 | 18.89° C | 58% | 1022.2 hPa | - | - | - | - |
| 1777791876 | 17.78° C | 59% | 1022.2 hPa | - | - | - | - |
| 1777790976 | 17.78° C | 60% | 1022.3 hPa | - | - | - | - |
| 1777790075 | 17.22° C | 63% | 1022.4 hPa | - | - | - | - |
| 1777789175 | 17.22° C | 70% | 1022.4 hPa | - | - | - | - |
| 1777788274 | 16.11° C | 65% | 1022.5 hPa | - | - | - | - |
| 1777787373 | 16.11° C | 66% | 1022.5 hPa | - | - | - | - |
| 1777786472 | 15.56° C | 66% | 1022.6 hPa | - | - | - | - |
| 1777785570 | 15.56° C | 66% | 1022.7 hPa | - | - | - | - |
| 1777784669 | 15.56° C | 66% | 1022.6 hPa | - | - | - | - |
| 1777783769 | 15.56° C | 66% | 1022.7 hPa | - | - | - | - |
* Rain since midnight (hover to see other rain measurements)
** Current wind speed in m/s (hover to see current wind gust speed)